Tracking 20369 objects as of 17-Feb-2020
HD Live streaming from Space Station
objects crossing your sky now

METEOR PRIRODA

Track METEOR PRIRODA now!
10-day predictions
METEOR PRIRODA is classified as:


NORAD ID: 12585
Int'l Code: 1981-065A
Perigee: 499.2 km
Apogee: 517.2 km
Inclination: 97.5 °
Period: 94.6 minutes
Semi major axis: 6879 km
RCS: 4.6163 m2 (large)
Launch date: July 10, 1981
Source: Commonwealth of Independent States (former USSR) (CIS)
Launch site: TYURATAM MISSILE AND SPACE COMPLEX (TTMTR)
aabbcc
Your satellite tracking list
Your tracking list is empty




NASA's NSSDC Master Catalog

Two Line Element Set (TLE):
1 12585U 81065A   20047.92861582 +.00000347 +00000-0 +18568-4 0  9991
2 12585 097.5381 036.2160 0013033 229.3827 130.6276 15.21579682104621
Source of the keplerian elements: AFSPC